{"data":{"norad_id":63151,"intl_designator":"2025-043V","name":"STARLINK-32876","alt_names":[],"object_type":"PAYLOAD","status":"ACTIVE","operator":null,"country":"US","launch_date":"2025-03-03","launch_site_code":"AFETR","launch_vehicle":null,"mission":null,"orbit_class":"UNKNOWN","rcs_meters":null,"size_class":null,"mass_kg":null,"dimensions":null,"purposes":["comms"],"wikipedia_slug":null,"has_3d_model":false,"image_url":null,"decayed_at":null,"tle_current":{"epoch":"2026-05-25T03:59:06.531648Z","epoch_age_seconds":67460,"freshness":"FRESH","line1":"1 63151U 25043V   26145.16604782  .00007841  00000+0  29419-3 0  9999","line2":"2 63151  43.0028 303.8783 0001488 257.3569 102.7116 15.27574744 69060","mean_motion":15.27574744,"eccentricity":0.0001488,"inclination_deg":43.0028,"raan_deg":303.8783,"arg_perigee_deg":257.3569,"mean_anomaly_deg":102.7116,"bstar":0.00029419,"rev_number":6906,"period_min":94.267073061794,"perigee_km":482.04388760665,"apogee_km":484.08578127258,"semimajor_km":6861.2018344396,"source":"CELESTRAK","updated_at":"2026-05-25T13:38:19.918100Z"}}}